[[{"header":{"parameterUnit":"m.s-1","parameterCategory":1,"la1":30.2991,"la2":30.254,"lo1":-89.0895,"lo2":-89.0444,"dy":0.0017,"dx":0.0017,"nx":28,"ny":28,"refTime":"2024-03-18T21:00:00:Z","depth":0,"parameterNumber":2,"parameterNumberName":"U-component_of_WINDS"},"data":[0,0,0,0,0,0,0,0,0,0,0,0,0,0,0,0,0,0,0,0,0,0,0,0,0,0,0,0,0,0,0,0,0,0,0,0,0,0,0,0,0,0,0,0,0,0,0,0,0,0,0,0,0,0,0,0,0,0,0.6144,0.6144,0,0.615,0.615,0.615,0.6156,0.6156,0.6156,0.6156,0.6161,0.6161,0.6161,0,0,0,0,0,0,0,0,0,0,0,0,0,0.6136,0.6136,0.6144,0.6144,0.6144,0.615,0.615,0.6151,0.6156,0.6156,0.6156,0.6156,0.6161,0.6161,0.6161,0,0,0,0,0,0,0,0,0,0,0,0,0,0.614,0.6136,0.6144,0.6148,0.6148,0.615,0.615,0.6151,0.6156,0.6156,0.6156,0.6156,0.6161,0.6161,0.6161,0.616,0,0,0.6161,0.6161,0,0,0,0,0,0,0,0,0.614,0.6141,0.6147,0.6147,0.6148,0.6152,0.6149,0.6154,0.6156,0.6153,0.6156,0.6156,0.6158,0.6158,0.6159,0.616,0.616,0.6161,0.6161,0.6162,0.6162,0,0,0,0,0,0,0,0.614,0.614,0.6147,0.6147,0.6148,0.6149,0.6149,0.615,0.6155,0.6153,0.6153,0.6154,0.6158,0.6159,0.6159,0.6161,0.6161,0.6161,0.6162,0.6162,0.6161,0.6161,0,0,0,0,0,0,0.6139,0.614,0.6146,0.6147,0.6144,0.6149,0.615,0.6151,0.6155,0.6155,0.6154,0.6154,0.6159,0.6159,0.6159,0.6159,0.6162,0.6162,0.6162,0.6161,0.6161,0.6161,0,0,0,0,0,0,0.6139,0.614,0.6146,0.6144,0.6145,0.6149,0.615,0.6151,0.6152,0.6155,0.6156,0.6154,0.6159,0.6159,0.616,0.6159,0.6162,0.6162,0.6162,0.6161,0.6161,0.6157,0,0,0,0,0,0,0.6139,0.614,0.6139,0.6144,0.6145,0.6147,0.615,0.6151,0.6152,0.6153,0.6156,0.6156,0.6159,0.616,0.616,0.6159,0.6162,0.6162,0.6161,0.6161,0.6157,0.6157,0.6156,0,0,0,0,0,0.6138,0.6137,0.6139,0.614,0.6144,0.6147,0.6147,0.615,0.6152,0.6152,0.6154,0.6156,0.6159,0.616,0.616,0.6159,0.6162,0.6162,0.6161,0.6157,0.6157,0.6156,0,0,0,0,0,0,0.6132,0.6138,0.614,0.6141,0.6143,0.6147,0.6147,0.615,0.6151,0.6152,0.6155,0.6156,0.6156,0.6158,0.6159,0.6159,0.6161,0.6161,0.6157,0.6157,0.6156,0.6156,0.6162,0,0,0,0,0,0.6131,0.6133,0.6137,0.6137,0.6139,0.6143,0.6144,0.6146,0.6149,0.615,0.6152,0.6154,0.6156,0.6156,0.6158,0.6158,0.6158,0.6157,0.6157,0.6156,0.6156,0.6156,0.6156,0.6161,0.6161,0.6161,0,0,0.6128,0.6132,0.6132,0.6136,0.6138,0.614,0.6144,0.6145,0.6146,0.615,0.6151,0.6153,0.6155,0.6156,0.6156,0.6157,0.6155,0.6156,0.6156,0.6156,0.6156,0.6155,0.6155,0.6161,0.6161,0.6161,0,0,0.6124,0.6127,0.6127,0.613,0.6133,0.6136,0.6136,0.6141,0.6142,0.6143,0.6147,0.6148,0.615,0.6152,0.6153,0.615,0.6152,0.6151,0.6148,0.6148,0.6148,0.6147,0.6146,0.6146,0.6151,0.6151,0.6151,0,0.612,0.6122,0.6127,0.6128,0.613,0.6134,0.6135,0.6137,0.614,0.6141,0.6143,0.6146,0.6148,0.6149,0.6149,0.6149,0.6149,0.615,0.6148,0.6147,0.6147,0.6146,0.6146,0.615,0.615,0.615,0.615,0,0.6117,0.6119,0.6119,0.6123,0.6125,0.6125,0.613,0.6131,0.6134,0.6136,0.6138,0.614,0.6143,0.6143,0.6145,0.6144,0.6145,0.6147,0.6149,0.6146,0.6145,0.6145,0.615,0.615,0.615,0.615,0,0,0.6108,0.6116,0.6115,0.6118,0.6123,0.6124,0.6125,0.6128,0.6129,0.6131,0.6132,0.6134,0.6137,0.6138,0.6141,0.6141,0.6138,0.6143,0.6143,0.6142,0.6138,0.6136,0.6135,0.614,0.614,0.614,0.6137,0,0.6104,0.6107,0.6111,0.6112,0.6114,0.6119,0.612,0.6123,0.6126,0.6127,0.613,0.6132,0.6135,0.6135,0.6136,0.6139,0.6138,0.6139,0.614,0.614,0.6139,0.6135,0.6133,0.613,0.6137,0.6137,0.6137,0,0.6099,0.6103,0.6104,0.611,0.6111,0.6111,0.6115,0.6116,0.612,0.6122,0.6124,0.6127,0.6128,0.6131,0.6133,0.6133,0.6134,0.6136,0.6136,0.6136,0.6138,0.6134,0.6129,0.6129,0.6136,0.6136,0.6136,0,0.6092,0.6097,0.6099,0.61,0.6107,0.6107,0.611,0.6114,0.6116,0.6118,0.612,0.6122,0.6124,0.6126,0.6129,0.6131,0.6131,0.6133,0.6132,0.6132,0.6131,0.6131,0.6126,0.6132,0.6132,0.6132,0.6132,0,0.6087,0.6088,0.6096,0.6096,0.6097,0.6103,0.6104,0.6107,0.611,0.6112,0.6116,0.6117,0.6122,0.6124,0.6127,0.6128,0.6128,0.613,0.6131,0.6129,0.6129,0.613,0.613,0.6132,0.6132,0.6132,0.6132,0,0.6079,0.6084,0.6086,0.6093,0.6094,0.6095,0.61,0.6101,0.6105,0.6107,0.6107,0.6113,0.6115,0.6119,0.6122,0.6124,0.6124,0.6126,0.6123,0.6124,0.6122,0.6122,0.6117,0.6116,0.6124,0.6123,0.6123,0,0.6075,0.6075,0.6083,0.6084,0.6087,0.6089,0.6092,0.6097,0.6099,0.6104,0.6104,0.6107,0.611,0.6113,0.6117,0.6119,0.6121,0.6119,0.6121,0.612,0.612,0.612,0.612,0.6118,0.6118,0.6118,0.6118,0,0.6067,0.607,0.6073,0.6077,0.608,0.6083,0.6087,0.6088,0.6094,0.6096,0.6099,0.6101,0.6105,0.6108,0.6111,0.6113,0.6116,0.6117,0.6117,0.6115,0.6114,0.6114,0.6122,0.6117,0.6117,0.6117,0.6117,0.6117,0.606,0.6062,0.6067,0.607,0.6074,0.6078,0.6079,0.6083,0.6086,0.609,0.6093,0.6096,0.61,0.6105,0.6107,0.6109,0.6111,0.611,0.611,0.611,0.6109,0.6114,0.611,0.611,0.611,0.611,0.611,0,0.6053,0.6057,0.606,0.6066,0.6068,0.6072,0.6077,0.6078,0.6081,0.6085,0.6088,0.6091,0.6094,0.6099,0.6102,0.6103,0.6104,0.6103,0.6103,0.6104,0.6108,0.6108,0.6102,0.6102,0.6102,0.6102,0.6102,0.6102,0.6049,0.6051,0.6055,0.6059,0.6063,0.6066,0.6069,0.6072,0.6075,0.6079,0.6082,0.6085,0.609,0.6093,0.6096,0.6097,0.6098,0.6097,0.6098,0.6102,0.6103,0.6104,0.6104,0.6097,0.6097,0.6094,0.6094,0.6093]},{"header":{"parameterUnit":"m.s-1","parameterCategory":1,"la1":30.2991,"la2":30.254,"lo1":-89.0895,"lo2":-89.0444,"dy":0.0017,"dx":0.0017,"nx":28,"ny":28,"refTime":"2024-03-18T21:00:00:Z","depth":0,"parameterNumber":3,"parameterNumberName":"V-component_of_WINDS"},"data":[0,0,0,0,0,0,0,0,0,0,0,0,0,0,0,0,0,0,0,0,0,0,0,0,0,0,0,0,0,0,0,0,0,0,0,0,0,0,0,0,0,0,0,0,0,0,0,0,0,0,0,0,0,0,0,0,0,0,0.1957,0.1957,0,0.1962,0.1962,0.1962,0.1994,0.1995,0.1995,0.1996,0.2,0.1999,0.1999,0,0,0,0,0,0,0,0,0,0,0,0,0,0.1974,0.1973,0.1957,0.1957,0.1957,0.1962,0.1962,0.1962,0.1994,0.1995,0.1996,0.1996,0.2,0.1999,0.1999,0,0,0,0,0,0,0,0,0,0,0,0,0,0.1971,0.1973,0.1957,0.1974,0.1975,0.1962,0.1962,0.1962,0.1993,0.1995,0.1996,0.1997,0.2,0.1999,0.1999,0.197,0,0,0.1996,0.1995,0,0,0,0,0,0,0,0,0.1971,0.1971,0.1971,0.1972,0.1974,0.1979,0.1969,0.1965,0.1993,0.1986,0.1996,0.1997,0.1992,0.1992,0.199,0.197,0.197,0.1996,0.1995,0.1995,0.1994,0,0,0,0,0,0,0,0.1972,0.1971,0.1959,0.1971,0.1973,0.198,0.1981,0.1969,0.1983,0.1987,0.1989,0.199,0.1993,0.1991,0.199,0.197,0.1996,0.1995,0.1994,0.1994,0.1925,0.1924,0,0,0,0,0,0,0.197,0.1971,0.1959,0.1959,0.1976,0.1979,0.198,0.1976,0.1983,0.1985,0.1989,0.1991,0.1992,0.1991,0.1991,0.1956,0.1995,0.1994,0.1993,0.1926,0.1925,0.1923,0,0,0,0,0,0,0.197,0.1968,0.1959,0.1966,0.1965,0.1978,0.1973,0.1975,0.1973,0.1984,0.1986,0.1984,0.1993,0.1992,0.1974,0.1957,0.1993,0.1993,0.1928,0.1926,0.1924,0.1888,0,0,0,0,0,0,0.197,0.1968,0.1958,0.1965,0.1964,0.1943,0.1972,0.1975,0.1972,0.1975,0.198,0.1982,0.1994,0.1976,0.1973,0.1956,0.1992,0.1929,0.1927,0.1925,0.1891,0.1885,0.188,0,0,0,0,0,0.1971,0.1947,0.1957,0.1955,0.1952,0.1942,0.1941,0.1955,0.197,0.1959,0.1966,0.1982,0.1959,0.1974,0.1971,0.1954,0.1931,0.1928,0.1925,0.1893,0.1886,0.188,0,0,0,0,0,0,0.1937,0.1949,0.1959,0.1938,0.1939,0.1947,0.1934,0.1947,0.1944,0.1947,0.1964,0.1965,0.1944,0.1947,0.1963,0.1925,0.1948,0.1944,0.1924,0.1917,0.1912,0.1912,0.1991,0,0,0,0,0,0.1927,0.1919,0.1929,0.1909,0.1909,0.1921,0.1917,0.1928,0.1929,0.193,0.1935,0.1935,0.1928,0.1923,0.1917,0.1891,0.1892,0.1878,0.1873,0.1868,0.1865,0.185,0.1844,0.1914,0.1914,0.1914,0,0,0.1907,0.1912,0.1906,0.1902,0.1904,0.1894,0.1921,0.191,0.1903,0.1928,0.1912,0.1915,0.1917,0.1895,0.1885,0.1897,0.1846,0.1865,0.1861,0.186,0.1847,0.184,0.1834,0.1912,0.1912,0.1913,0,0,0.1864,0.1868,0.1851,0.1852,0.1855,0.1863,0.1859,0.1865,0.1869,0.1853,0.1871,0.1862,0.185,0.185,0.1848,0.1805,0.1819,0.1802,0.1775,0.176,0.1755,0.175,0.1733,0.1727,0.1799,0.1799,0.1799,0,0.1838,0.1825,0.1841,0.1828,0.1825,0.1848,0.1831,0.1831,0.1831,0.1829,0.1841,0.1826,0.1828,0.1806,0.1795,0.1794,0.1789,0.1802,0.1754,0.175,0.1745,0.173,0.1724,0.1797,0.1797,0.1798,0.1798,0,0.1792,0.1783,0.1769,0.1768,0.1764,0.1749,0.1762,0.1756,0.1767,0.1773,0.1756,0.176,0.1755,0.1751,0.1761,0.1729,0.1736,0.1751,0.1774,0.1736,0.1722,0.1716,0.1794,0.1795,0.1795,0.1796,0,0,0.1729,0.1737,0.1732,0.1731,0.1736,0.1728,0.1714,0.1709,0.1703,0.1702,0.169,0.1678,0.1692,0.169,0.1701,0.1688,0.1652,0.1705,0.1705,0.1694,0.1617,0.1605,0.1598,0.1662,0.1661,0.166,0.1616,0,0.1688,0.1664,0.1677,0.1651,0.1642,0.1663,0.165,0.1651,0.1657,0.1649,0.1655,0.1647,0.1666,0.1665,0.1653,0.1659,0.1637,0.1663,0.165,0.1649,0.1648,0.1591,0.1578,0.1537,0.1611,0.161,0.1609,0,0.1636,0.1633,0.1606,0.1611,0.1608,0.1596,0.1592,0.1585,0.1586,0.1591,0.1588,0.1602,0.1587,0.161,0.1589,0.1607,0.1602,0.1604,0.1603,0.1602,0.1627,0.1587,0.1524,0.1517,0.1601,0.1602,0.1602,0,0.1592,0.1581,0.1563,0.1562,0.1568,0.1559,0.1561,0.1563,0.1559,0.1556,0.1553,0.1548,0.1544,0.154,0.1551,0.1567,0.1529,0.1553,0.1532,0.1531,0.1522,0.1523,0.1457,0.1521,0.1521,0.1521,0.1521,0,0.1544,0.1526,0.1543,0.1532,0.1513,0.1528,0.1508,0.1512,0.1514,0.1504,0.1521,0.1511,0.1527,0.1518,0.1527,0.1508,0.1507,0.151,0.1512,0.1508,0.1507,0.1505,0.1508,0.1519,0.152,0.152,0.152,0,0.149,0.1501,0.1483,0.149,0.1491,0.1476,0.1482,0.1472,0.1479,0.1465,0.1463,0.1473,0.1464,0.1474,0.1466,0.1472,0.1446,0.1453,0.1446,0.1447,0.1426,0.1427,0.1355,0.1346,0.1416,0.1416,0.1415,0,0.1459,0.1446,0.1451,0.1445,0.1446,0.1437,0.1433,0.1447,0.1442,0.1442,0.1431,0.1423,0.1417,0.1401,0.1407,0.14,0.1407,0.1382,0.1406,0.1402,0.1406,0.1406,0.1404,0.1377,0.1376,0.1376,0.1375,0,0.1401,0.1407,0.1401,0.1395,0.139,0.1387,0.1385,0.1379,0.1394,0.1387,0.1377,0.1373,0.1364,0.1355,0.135,0.1351,0.1365,0.1368,0.1362,0.1357,0.1353,0.1354,0.1432,0.1369,0.137,0.137,0.137,0.1371,0.1357,0.1346,0.1348,0.134,0.134,0.1338,0.1328,0.1333,0.1326,0.132,0.1328,0.1316,0.1317,0.1311,0.1311,0.1301,0.1312,0.1304,0.1302,0.13,0.1296,0.1355,0.13,0.1301,0.1301,0.1301,0.1301,0,0.13,0.1302,0.1294,0.1291,0.1284,0.1298,0.1297,0.129,0.1279,0.1278,0.1272,0.1261,0.1252,0.1258,0.1251,0.1242,0.1248,0.1239,0.124,0.1239,0.1288,0.1293,0.1234,0.1234,0.1234,0.1234,0.1234,0.1234,0.1269,0.1251,0.1257,0.1239,0.1241,0.1229,0.1227,0.1224,0.1224,0.121,0.1203,0.1207,0.1209,0.1202,0.1194,0.1196,0.1192,0.1181,0.1185,0.123,0.1236,0.1242,0.1247,0.118,0.118,0.1138,0.1137,0.1137]}]]